Location: Blackfoot
(53.5367°N, 112.7800°W)
Time: 12:12:28
(UTC-06:00)

Amateur Radio Satellites - All Passes

Search period start: 30 July 2015 11:42
Search period end: 31 July 2015 11:42
Location: Blackfoot, 53.5367°N, 112.7800°W

Satellite Date Start Highest point End Downlink Frequencies (MHz)
Time Altitude Azimuth
DOVE 4 30 Jul 11:43:50 11:47:15 22° 300° (WNW) 11:50:44 437.250
HO-68 30 Jul 11:44:59 11:51:49 48° 301° (WNW) 11:58:36 435.675
BUGSAT 1 30 Jul 11:45:07 11:49:08 68° 73° (ENE) 11:53:10 437.445
GOMX 1 30 Jul 11:46:01 11:48:33 15° 304° (NW) 11:51:02 467.674
HUMSAT D 30 Jul 11:49:01 11:53:11 46° 98° (E) 11:57:22 437.325/437.525
DX 1 30 Jul 11:50:28 11:54:25 33° 96° (E) 11:58:21 434.975-435.025
VELOX 1 30 Jul 11:57:13 12:00:51 25° 92° (E) 12:04:33 145.980
Cosmos 2491 30 Jul 11:59:18 12:05:56 26° 78° (ENE) 12:12:48 435.465 / 435.565
ESTCUBE 1 30 Jul 12:00:52 12:04:16 21° 90° (E) 12:07:45 437.505/2401.250
DELFI C3 30 Jul 12:00:58 12:05:01 59° 289° (WNW) 12:09:00 145.870
AAUSAT CUBESAT 2 30 Jul 12:01:03 12:04:33 25° 298° (WNW) 12:07:58 437.432
DUCHIFAT 1 30 Jul 12:04:07 12:08:14 56° 259° (W) 12:12:24 145.980
QB50P1 30 Jul 12:05:50 12:09:56 52° 260° (W) 12:14:05 145.935-145.965
50 SAT 30 Jul 12:07:52 12:11:33 35° 96° (E) 12:15:14 437.505
NANOSAT C BR1 30 Jul 12:07:56 12:12:01 50° 260° (W) 12:16:09 145.865
CINEMA 3 30 Jul 12:07:58 12:11:43 26° 298° (WNW) 12:15:33 145.822/145.860
ZACube-1 30 Jul 12:21:22 12:25:41 47° 292° (WNW) 12:30:04 437.345
SPROUT 30 Jul 12:24:29 12:24:55 10° 82° (E) 12:25:34 437.525
UNISAT 6 30 Jul 12:31:11 12:34:05 17° 274° (W) 12:36:55 437.425
ITAMSAT 1 30 Jul 12:37:45 12:39:22 12° 45° (NE) 12:41:09 435.822/435.867
UWE-3 30 Jul 12:41:00 12:44:54 28° 297° (WNW) 12:48:48 435.000/436.395/437.385
JAS-2 30 Jul 12:42:41 12:44:48 12° 31° (NNE) 12:47:12 435.910
FUNcube-1 30 Jul 12:44:15 12:48:15 32° 296° (WNW) 12:52:16 145.935
POLYITAN 1 30 Jul 12:49:04 12:52:24 22° 269° (W) 12:55:40 437.675
SO-50 30 Jul 12:49:26 12:54:10 48° 326° (NNW) 12:59:00 436.795
CUBEBUG 2 30 Jul 12:52:41 12:56:04 20° 301° (WNW) 12:59:25 437.445
AISAT 30 Jul 12:53:33 12:57:59 80° 105° (ESE) 13:02:24 437.250
Cosmos 2504 30 Jul 12:54:39 13:01:09 26° 53° (NE) 13:08:04 435.465 / 435.565
AIST 1 30 Jul 12:55:25 12:59:31 42° 93° (E) 13:03:38
Oscar 19 30 Jul 12:56:29 13:01:05 35° 62° (ENE) 13:05:45 437.125/150
O/OREOS (USA 219) 30 Jul 12:58:47 13:02:58 35° 251° (WSW) 13:07:07 437.305
UKube-1 30 Jul 13:01:27 13:05:45 63° 289° (WNW) 13:10:01 .
Oscar 11 30 Jul 13:01:33 13:04:26 17° 303° (WNW) 13:07:11 145.826/435.025
Cosmos 2499 30 Jul 13:04:09 13:05:48 11° 334° (NNW) 13:07:11 435.465 / 435.565
PCSat 30 Jul 13:04:50 13:09:45 33° 330° (NNW) 13:14:40 145.827
POPSAT HIP 1 30 Jul 13:07:53 13:10:32 16° 273° (W) 13:13:02 437.405
YUBILEINY 30 Jul 13:13:05 13:21:46 64° 267° (W) 13:30:25 435.215
CUBEBUG 1 30 Jul 13:14:02 13:18:23 77° 104° (ESE) 13:22:42 437.445
QB50P2 30 Jul 13:15:41 13:17:48 13° 275° (W) 13:19:47 145.880/145.840
BUGSAT 1 30 Jul 13:22:32 13:25:06 16° 272° (W) 13:27:33 437.445
HUMSAT D 30 Jul 13:25:05 13:28:44 27° 297° (WNW) 13:32:22 437.325/437.525
AO-7 30 Jul 13:26:35 13:32:18 21° 33° (NNE) 13:38:10 29.400- 29.500
DX 1 30 Jul 13:26:42 13:30:42 36° 295° (WNW) 13:34:40 434.975-435.025
VELOX 1 30 Jul 13:33:24 13:37:40 48° 292° (WNW) 13:41:54 145.980
HO-68 30 Jul 13:33:48 13:38:03 17° 324° (NW) 13:42:08 435.675
ESTCUBE 1 30 Jul 13:37:05 13:41:34 60° 290° (WNW) 13:45:58 437.505/2401.250
DELFI C3 30 Jul 13:38:29 13:39:18 10° 308° (NW) 13:39:59 145.870
Gurwin Techsat 1B 30 Jul 13:40:02 13:44:35 30° 60° (ENE) 13:49:14 435.225
50 SAT 30 Jul 13:42:33 13:46:04 30° 295° (WNW) 13:49:32 437.505
Cosmos 2491 30 Jul 13:53:00 14:01:48 89° 103° (ESE) 14:10:37 435.465 / 435.565
SPROUT 30 Jul 13:57:35 14:01:53 71° 103° (ESE) 14:06:11 437.525
BEESAT 30 Jul 14:00:55 14:02:53 13° 83° (E) 14:05:04 436.000
ITAMSAT 1 30 Jul 14:12:49 14:17:46 46° 65° (ENE) 14:22:46 435.822/435.867
TISAT 1 30 Jul 14:17:07 14:21:21 71° 103° (ESE) 14:25:33 437.305
SWISSCUBE 30 Jul 14:20:09 14:23:35 20° 88° (E) 14:27:07 437.505
JAS-2 30 Jul 14:22:12 14:27:46 33° 55° (NE) 14:34:02 435.910
CUSAT 1 30 Jul 14:23:34 14:24:28 11° 60° (ENE) 14:25:35 437.405
AISAT 30 Jul 14:31:03 14:34:04 18° 304° (NW) 14:37:00 437.250
SO-50 30 Jul 14:31:42 14:35:46 24° 350° (N) 14:39:50 436.795
AIST 1 30 Jul 14:33:35 14:37:21 27° 294° (WNW) 14:41:03
Oscar 19 30 Jul 14:35:28 14:40:22 45° 262° (W) 14:45:19 437.125/150
UKube-1 30 Jul 14:39:22 14:41:07 12° 309° (NW) 14:42:43 .
ITUPSAT 1 30 Jul 14:39:50 14:43:51 26° 92° (E) 14:47:51 437.325
Cosmos 2504 30 Jul 14:46:30 14:54:47 81° 78° (ENE) 15:03:25 435.465 / 435.565
PCSat 30 Jul 14:50:47 14:54:45 20° 355° (N) 14:58:43 145.827
CUBEBUG 1 30 Jul 14:51:17 14:54:16 18° 303° (WNW) 14:57:09 437.445
YUBILEINY 30 Jul 15:11:37 15:16:58 17° 290° (WNW) 15:21:55 435.215
AO-7 30 Jul 15:15:28 15:23:29 54° 57° (ENE) 15:31:34 29.400- 29.500
ESTCUBE 1 30 Jul 15:15:49 15:17:36 12° 310° (NW) 15:19:13 437.505/2401.250
Gurwin Techsat 1B 30 Jul 15:19:06 15:24:20 57° 259° (W) 15:29:37 435.225
KKS-1 30 Jul 15:23:03 15:25:17 14° 85° (E) 15:27:40 437.445
DANDE 30 Jul 15:31:01 15:33:43 25° 70° (ENE) 15:37:02 436.750
HORYU 2 30 Jul 15:32:24 15:36:28 36° 64° (ENE) 15:40:36 437.375
SPROUT 30 Jul 15:34:29 15:37:33 19° 302° (WNW) 15:40:32 437.525
BEESAT 30 Jul 15:36:51 15:41:40 76° 104° (ESE) 15:46:27 436.000
Cosmos 2491 30 Jul 15:52:32 16:00:02 29° 306° (NW) 16:07:21 435.465 / 435.565
ITAMSAT 1 30 Jul 15:52:41 15:57:27 34° 265° (W) 16:02:11 435.822/435.867
TISAT 1 30 Jul 15:53:43 15:56:41 19° 302° (WNW) 15:59:34 437.305
SWISSCUBE 30 Jul 15:57:12 16:01:59 71° 290° (WNW) 16:06:44 437.505
GONETS M04 30 Jul 15:57:15 16:03:45 23° 47° (NE) 16:10:28
CUSAT 1 30 Jul 16:03:47 16:07:20 87° 75° (ENE) 16:12:02 437.405
JAS-2 30 Jul 16:06:10 16:12:23 69° 258° (WSW) 16:19:29 435.910
SO-50 30 Jul 16:13:32 16:17:42 26° 14° (NNE) 16:21:53 436.795
Cubesat XI-IV 30 Jul 16:15:29 16:15:49 10° 41° (NE) 16:16:20 437.490
ITUPSAT 1 30 Jul 16:17:21 16:22:03 54° 292° (WNW) 16:26:42 437.325
PCSat 30 Jul 16:35:30 16:39:58 25° 20° (NNE) 16:44:26 145.827
STARS 30 Jul 16:35:57 16:40:05 38° 97° (E) 16:44:13 437.465
Cosmos 2504 30 Jul 16:39:25 16:46:21 30° 279° (W) 16:53:19 435.465 / 435.565
Cosmos 2499 30 Jul 16:57:24 17:02:14 16° 39° (NE) 17:07:30 435.465 / 435.565
KKS-1 30 Jul 16:58:09 17:02:39 89° 108° (ESE) 17:07:07 437.445
Gurwin Techsat 1B 30 Jul 17:04:56 17:05:40 10° 281° (WNW) 17:06:05 435.225
CUTE-I 30 Jul 17:07:37 17:11:30 21° 54° (NE) 17:15:29 437.470
AO-7 30 Jul 17:08:20 17:16:27 51° 260° (W) 17:24:34 29.400- 29.500
HORYU 2 30 Jul 17:09:02 17:13:08 35° 264° (W) 17:17:15 437.375
DANDE 30 Jul 17:13:56 17:16:49 27° 262° (W) 17:20:19 436.750
BEESAT 30 Jul 17:15:27 17:19:03 21° 304° (NW) 17:22:34 436.000
MOZHAYETS 4 30 Jul 17:35:57 17:40:15 36° 95° (E) 17:44:32
SWISSCUBE 30 Jul 17:36:24 17:39:06 15° 309° (NW) 17:41:40 437.505
CUSAT 1 30 Jul 17:48:28 17:49:42 11° 269° (W) 17:50:49 437.405
Cubesat XI-IV 30 Jul 17:49:42 17:54:38 39° 62° (ENE) 17:59:36 437.490
GONETS M04 30 Jul 17:53:48 18:02:33 72° 75° (ENE) 18:11:17
SO-50 30 Jul 17:54:15 17:59:11 56° 37° (NE) 18:04:04 436.795
JAS-2 30 Jul 17:55:15 17:59:09 16° 284° (WNW) 18:03:00 435.910
ITUPSAT 1 30 Jul 17:57:10 17:59:00 12° 312° (NW) 18:00:41 437.325
Cosmos 2491 30 Jul 17:59:13 18:00:57 10° 337° (NNW) 18:02:23 435.465 / 435.565
STARS 30 Jul 18:12:30 18:16:29 33° 296° (WNW) 18:20:26 437.465
PCSat 30 Jul 18:18:59 18:24:24 63° 44° (NE) 18:29:48 145.827
KKS-1 30 Jul 18:35:51 18:38:43 17° 305° (NW) 18:41:30 437.445
CUTE-I 30 Jul 18:45:36 18:51:00 89° 253° (WSW) 18:56:25 437.470
HO-68 30 Jul 18:47:15 18:52:23 23° 44° (NE) 18:57:42 435.675
Cosmos 2499 30 Jul 18:49:50 18:58:03 48° 66° (ENE) 19:06:36 435.465 / 435.565
AO-7 30 Jul 19:08:24 19:11:43 12° 285° (WNW) 19:14:27 29.400- 29.500
MOZHAYETS 4 30 Jul 19:13:13 19:17:31 37° 295° (WNW) 19:21:44
STRAND 1 30 Jul 19:15:12 19:17:41 14° 83° (E) 19:20:23 437.568
CUTE 1.7 + AOD 2 30 Jul 19:18:47 19:20:21 12° 53° (NE) 19:22:03 437.475
SEEDS 30 Jul 19:19:52 19:20:20 10° 51° (NE) 19:20:58 437.485
BRITE-PL 30 Jul 19:24:36 19:28:24 31° 65° (ENE) 19:32:07 437.365/2234.400
CUBESAT XI-V 30 Jul 19:25:13 19:29:36 41° 97° (E) 19:33:58 437.345
CANX-2 30 Jul 19:26:00 19:28:19 15° 55° (NE) 19:30:46 2200.000
Cubesat XI-IV 30 Jul 19:29:36 19:34:44 43° 262° (W) 19:39:52 437.490
SO-50 30 Jul 19:35:03 19:39:38 37° 238° (WSW) 19:44:06 436.795
PRISM 30 Jul 19:39:17 19:41:36 15° 87° (E) 19:44:03 437.425
DOVE 4 30 Jul 19:41:31 19:44:29 20° 59° (ENE) 19:47:32 437.250
GOMX 1 30 Jul 19:44:07 19:47:45 29° 64° (ENE) 19:51:24 467.674
AAUSAT CUBESAT 2 30 Jul 19:49:00 19:50:52 13° 54° (NE) 19:52:52 437.432
GONETS M04 30 Jul 19:51:15 19:58:52 34° 278° (W) 20:06:19
PCSat 30 Jul 20:02:47 20:07:35 32° 245° (WSW) 20:12:18 145.827
CINEMA 3 30 Jul 20:03:27 20:06:03 17° 56° (ENE) 20:08:48 145.822/145.860
CUTE-I 30 Jul 20:28:21 20:31:56 17° 275° (W) 20:35:20 437.470
HO-68 30 Jul 20:32:01 20:39:05 70° 66° (ENE) 20:46:14 435.675
UWE-3 30 Jul 20:33:38 20:35:51 14° 54° (NE) 20:38:14 435.000/436.395/437.385
FUNcube-1 30 Jul 20:36:35 20:38:14 12° 52° (NE) 20:40:02 145.935
COMPASS 1 30 Jul 20:39:09 20:42:59 35° 66° (ENE) 20:46:53 437.405
Cosmos 2499 30 Jul 20:43:09 20:51:29 55° 269° (W) 21:00:00 435.465 / 435.565
CUBEBUG 2 30 Jul 20:44:42 20:47:46 20° 58° (ENE) 20:50:59 437.445
Oscar 11 30 Jul 20:50:17 20:53:39 23° 60° (ENE) 20:57:06 145.826/435.025
SEEDS 30 Jul 20:51:07 20:55:15 54° 70° (ENE) 20:59:28 437.485
CUTE 1.7 + AOD 2 30 Jul 20:51:15 20:55:29 65° 72° (ENE) 20:59:47 437.475
STRAND 1 30 Jul 20:52:44 20:57:52 77° 103° (ESE) 21:03:00 437.568
CANX-2 30 Jul 20:59:20 21:03:38 83° 74° (ENE) 21:07:58 2200.000
CUBESAT XI-V 30 Jul 21:02:50 21:06:58 32° 297° (WNW) 21:11:02 437.345
BRITE-PL 30 Jul 21:02:56 21:06:58 35° 264° (W) 21:10:50 437.365/2234.400
PRISM 30 Jul 21:13:28 21:17:37 76° 288° (WNW) 21:21:43 437.425
HUMSAT D 30 Jul 21:14:00 21:15:48 13° 53° (NE) 21:17:43 437.325/437.525
DOVE 4 30 Jul 21:17:48 21:21:55 61° 259° (WSW) 21:26:04 437.250
DX 1 30 Jul 21:19:03 21:20:44 12° 51° (NE) 21:22:35 434.975-435.025
DELFI C3 30 Jul 21:19:40 21:23:06 27° 63° (ENE) 21:26:36 145.870
AAUSAT CUBESAT 2 30 Jul 21:21:34 21:25:47 74° 72° (ENE) 21:30:01 437.432
GOMX 1 30 Jul 21:21:57 21:25:53 36° 264° (W) 21:29:45 467.674
CINEMA 3 30 Jul 21:38:35 21:42:45 80° 256° (WSW) 21:47:02 145.822/145.860
ZACube-1 30 Jul 21:47:24 21:51:24 43° 68° (ENE) 21:55:32 437.345
Cosmos 2491 30 Jul 21:58:56 22:05:06 21° 45° (NE) 22:11:31 435.465 / 435.565
UWE-3 30 Jul 22:07:31 22:11:43 82° 74° (ENE) 22:16:05 435.000/436.395/437.385
FUNcube-1 30 Jul 22:09:36 22:13:47 67° 72° (ENE) 22:18:06 145.935
M-CUBED/EXP-1 PRIME 30 Jul 22:13:21 22:16:26 17° 92° (E) 22:19:37 437.505
COMPASS 1 30 Jul 22:14:50 22:18:40 32° 265° (W) 22:22:31 437.405
CUBEBUG 2 30 Jul 22:19:54 22:24:04 64° 258° (WSW) 22:28:24 437.445
HO-68 30 Jul 22:21:07 22:27:27 32° 268° (W) 22:33:43 435.675
AISAT 30 Jul 22:21:58 22:25:32 25° 60° (ENE) 22:29:10 437.250
RS-15 30 Jul 22:22:15 22:32:12 44° 113° (ESE) 22:42:40 29.354- 29.394
Oscar 11 30 Jul 22:25:14 22:29:31 58° 259° (W) 22:33:51 145.826/435.025
UKube-1 30 Jul 22:26:37 22:30:34 36° 65° (ENE) 22:34:34 .
SEEDS 30 Jul 22:28:03 22:31:23 21° 270° (W) 22:34:40 437.485
CUTE 1.7 + AOD 2 30 Jul 22:28:49 22:31:52 18° 272° (W) 22:34:50 437.475
STRAND 1 30 Jul 22:32:39 22:36:37 23° 304° (NW) 22:40:29 437.568
CANX-2 30 Jul 22:37:46 22:40:13 14° 275° (W) 22:42:31 2200.000
Cosmos 2499 30 Jul 22:38:27 22:42:56 15° 291° (WNW) 22:47:02 435.465 / 435.565
UNISAT 6 30 Jul 22:39:51 22:41:10 11° 82° (E) 22:42:44 437.425
CUBEBUG 1 30 Jul 22:41:11 22:44:33 22° 60° (ENE) 22:47:57 437.445
AUBIESAT-1 30 Jul 22:43:43 22:47:41 26° 97° (E) 22:51:41 437.475
HUMSAT D 30 Jul 22:46:41 22:50:49 72° 72° (ENE) 22:55:03 437.325/437.525
PRISM 30 Jul 22:50:24 22:52:23 13° 307° (NW) 22:54:15 437.425
DX 1 30 Jul 22:51:57 22:56:14 65° 71° (ENE) 23:00:33 434.975-435.025
DELFI C3 30 Jul 22:54:10 22:58:02 41° 262° (W) 23:01:56 145.870
AIST 1 30 Jul 22:56:02 22:59:26 23° 64° (ENE) 23:02:52
50 SAT 30 Jul 22:57:29 23:01:15 48° 69° (ENE) 23:05:05 437.505
AAUSAT CUBESAT 2 30 Jul 22:59:15 23:01:55 16° 273° (W) 23:04:28 437.432
VELOX 1 30 Jul 23:00:38 23:04:53 49° 68° (ENE) 23:09:09 145.980
ESTCUBE 1 30 Jul 23:06:17 23:10:32 41° 66° (ENE) 23:14:50 437.505/2401.250
CINEMA 3 30 Jul 23:19:40 23:20:52 11° 278° (W) 23:21:51 145.822/145.860
TIGRISAT 30 Jul 23:22:01 23:25:50 25° 91° (E) 23:29:44 435.000
ANTELSAT 30 Jul 23:23:05 23:27:00 26° 92° (E) 23:31:00 437.575/2403.000
SPROUT 30 Jul 23:23:19 23:26:21 20° 58° (ENE) 23:29:29 437.525
ZACube-1 30 Jul 23:24:22 23:27:58 26° 268° (W) 23:31:36 437.345
ISS 30 Jul 23:28:01 23:30:44 24° 152° (SSE) 23:33:28 145.825
TISAT 1 30 Jul 23:41:08 23:44:02 19° 58° (ENE) 23:47:03 437.305
DUCHIFAT 1 30 Jul 23:43:13 23:45:46 16° 87° (E) 23:48:28 145.980
QB50P1 30 Jul 23:45:10 23:47:57 17° 88° (E) 23:50:50 145.935-145.965
UWE-3 30 Jul 23:46:34 23:48:57 14° 275° (W) 23:51:14 435.000/436.395/437.385
NANOSAT C BR1 30 Jul 23:46:59 23:49:48 18° 88° (E) 23:52:44 145.865
M-CUBED/EXP-1 PRIME 30 Jul 23:47:00 23:51:50 88° 298° (WNW) 23:56:39 437.505
FUNcube-1 30 Jul 23:47:45 23:50:38 17° 273° (W) 23:53:28 145.935
Cosmos 2491 30 Jul 23:55:26 00:04:08 66° 72° (ENE) 00:12:48 435.465 / 435.565
AISAT 30 Jul 23:57:33 00:01:52 52° 260° (W) 00:06:12 437.250
SWISSCUBE 30 Jul 23:59:37 00:00:13 10° 46° (NE) 00:01:01 437.505
UKube-1 31 Jul 00:02:49 00:06:45 33° 264° (W) 00:10:40 .
UNISAT 6 31 Jul 00:14:13 00:18:53 69° 103° (ESE) 00:23:36 437.425
CUBEBUG 1 31 Jul 00:16:17 00:20:36 58° 259° (W) 00:24:54 437.445
BEESAT 3 31 Jul 00:16:39 00:19:02 15° 115° (ESE) 00:21:33 437.485
AUBIESAT-1 31 Jul 00:17:59 00:22:40 58° 297° (WNW) 00:27:18 437.475
ITUPSAT 1 31 Jul 00:18:09 00:20:16 13° 49° (NE) 00:22:33 437.325
HUMSAT D 31 Jul 00:24:28 00:27:07 16° 273° (W) 00:29:40 437.325/437.525
YUBILEINY 31 Jul 00:26:14 00:33:43 35° 82° (E) 00:41:24 435.215
POLYITAN 1 31 Jul 00:26:45 00:30:47 40° 98° (E) 00:34:50 437.675
DX 1 31 Jul 00:29:48 00:32:57 19° 271° (W) 00:35:59 434.975-435.025
RS-15 31 Jul 00:32:54 00:43:58 78° 320° (NW) 00:55:36 29.354- 29.394
50 SAT 31 Jul 00:33:03 00:36:05 21° 269° (W) 00:39:05 437.505
AIST 1 31 Jul 00:33:14 00:37:24 50° 265° (W) 00:41:31
VELOX 1 31 Jul 00:38:00 00:41:41 25° 268° (W) 00:45:20 145.980
ESTCUBE 1 31 Jul 00:43:28 00:47:32 31° 266° (W) 00:51:34 437.505/2401.250
POPSAT HIP 1 31 Jul 00:44:20 00:48:33 57° 101° (E) 00:52:46 437.405
QB50P2 31 Jul 00:51:37 00:55:53 69° 103° (ESE) 01:00:08 145.880/145.840
BUGSAT 1 31 Jul 00:56:11 01:00:07 47° 99° (E) 01:04:05 437.445
SPROUT 31 Jul 00:57:47 01:02:02 68° 257° (WSW) 01:06:19 437.525
TIGRISAT 31 Jul 00:58:19 01:02:52 54° 291° (WNW) 01:07:27 435.000
ANTELSAT 31 Jul 00:59:30 01:04:02 51° 291° (WNW) 01:08:36 437.575/2403.000
ISS 31 Jul 01:03:35 01:06:48 56° 171° (S) 01:10:01 145.825
BEESAT 2 31 Jul 01:10:51 01:14:36 34° 123° (ESE) 01:18:23 435.950
BEESAT 31 Jul 01:12:38 01:16:47 30° 61° (ENE) 01:21:01 436.000
TISAT 1 31 Jul 01:15:14 01:19:25 68° 257° (WSW) 01:23:36 437.305
DUCHIFAT 1 31 Jul 01:17:53 01:22:07 74° 288° (WNW) 01:26:21 145.980
QB50P1 31 Jul 01:20:03 01:24:18 68° 288° (WNW) 01:28:32 145.935-145.965
NANOSAT C BR1 31 Jul 01:21:53 01:26:06 67° 288° (WNW) 01:30:19 145.865
M-CUBED/EXP-1 PRIME 31 Jul 01:22:33 01:26:03 20° 311° (NW) 01:29:29 437.505
SWISSCUBE 31 Jul 01:32:28 01:37:02 45° 66° (ENE) 01:41:38 437.505
Cosmos 2504 31 Jul 01:39:39 01:41:23 11° 66° (ENE) 01:43:37 435.465 / 435.565
O/OREOS (USA 219) 31 Jul 01:40:53 01:42:31 12° 99° (E) 01:44:21 437.305
UNISAT 6 31 Jul 01:51:41 01:55:17 22° 301° (WNW) 01:58:49 437.425
BEESAT 3 31 Jul 01:52:20 01:56:26 88° 135° (SE) 02:00:34 437.485
ITUPSAT 1 31 Jul 01:52:34 01:57:18 60° 70° (ENE) 02:02:05 437.325
Cosmos 2491 31 Jul 01:52:48 02:00:38 38° 276° (W) 02:08:19 435.465 / 435.565
AUBIESAT-1 31 Jul 01:53:57 01:56:32 14° 316° (NW) 01:59:00 437.475
POLYITAN 1 31 Jul 02:02:50 02:06:35 30° 297° (WNW) 02:10:18 437.675
STARS 31 Jul 02:05:14 02:07:22 14° 53° (NE) 02:09:39 437.465
POPSAT HIP 1 31 Jul 02:20:47 02:24:07 22° 300° (WNW) 02:27:24 437.405
YUBILEINY 31 Jul 02:21:19 02:30:01 71° 286° (WNW) 02:38:50 435.215
KKS-1 31 Jul 02:26:44 02:30:29 28° 62° (ENE) 02:34:18 437.445
QB50P2 31 Jul 02:28:16 02:31:22 19° 302° (WNW) 02:34:23 145.880/145.840
BUGSAT 1 31 Jul 02:32:06 02:35:23 24° 299° (WNW) 02:38:37 437.445
AIST 2 31 Jul 02:34:08 02:38:17 52° 127° (SE) 02:42:28 435.215
TIGRISAT 31 Jul 02:37:09 02:38:44 11° 310° (NW) 02:40:10 435.000
ANTELSAT 31 Jul 02:38:31 02:39:54 11° 311° (NW) 02:41:07 437.575/2403.000
ISS 31 Jul 02:39:51 02:43:04 54° 190° (S) 02:46:16 145.825
Oscar 19 31 Jul 02:40:07 02:45:00 41° 97° (E) 02:49:53 437.125/150
RS-15 31 Jul 02:47:21 02:58:10 49° 351° (N) 03:09:31 29.354- 29.394
BEESAT 2 31 Jul 02:48:34 02:52:34 47° 323° (NW) 02:56:36 435.950
BEESAT 31 Jul 02:49:50 02:54:30 48° 261° (W) 02:59:09 436.000
DUCHIFAT 1 31 Jul 02:55:12 02:57:15 13° 306° (NW) 02:59:10 145.980
QB50P1 31 Jul 02:57:37 02:59:27 12° 307° (NW) 03:01:09 145.935-145.965
NANOSAT C BR1 31 Jul 02:59:29 03:01:13 12° 307° (NW) 03:02:48 145.865
JAS-2 31 Jul 03:08:41 03:13:52 20° 80° (E) 03:19:23 435.910
MOZHAYETS 4 31 Jul 03:09:39 03:11:57 14° 52° (NE) 03:14:25
SWISSCUBE 31 Jul 03:10:47 03:15:04 31° 266° (W) 03:19:20 437.505
O/OREOS (USA 219) 31 Jul 03:16:43 03:21:12 77° 117° (ESE) 03:25:45 437.305
Cosmos 2504 31 Jul 03:24:49 03:31:39 50° 89° (E) 03:39:05 435.465 / 435.565
Gurwin Techsat 1B 31 Jul 03:28:42 03:33:36 36° 95° (E) 03:38:31 435.225
BEESAT 3 31 Jul 03:31:20 03:34:51 26° 335° (NNW) 03:38:21 437.485
ITUPSAT 1 31 Jul 03:31:41 03:35:36 24° 269° (W) 03:39:26 437.325
STARS 31 Jul 03:38:46 03:43:08 74° 72° (ENE) 03:47:31 437.465
ITAMSAT 1 31 Jul 03:58:14 04:03:20 53° 100° (E) 04:08:25 435.822/435.867
KKS-1 31 Jul 04:02:41 04:06:57 46° 261° (W) 04:11:15 437.445
AIST 2 31 Jul 04:13:02 04:17:01 37° 328° (NNW) 04:21:00 435.215
ISS 31 Jul 04:16:28 04:19:06 22° 210° (SSW) 04:21:42 145.825
Oscar 19 31 Jul 04:19:34 04:24:22 39° 297° (WNW) 04:29:09 437.125/150
YUBILEINY 31 Jul 04:22:07 04:28:50 23° 313° (NW) 04:35:22 435.215
BEESAT 2 31 Jul 04:28:25 04:31:30 20° 346° (NNW) 04:34:34 435.950
MOZHAYETS 4 31 Jul 04:43:49 04:48:26 69° 72° (ENE) 04:53:06
DANDE 31 Jul 04:52:00 04:53:18 12° 94° (E) 04:54:37 436.750
JAS-2 31 Jul 04:52:35 05:00:19 71° 102° (ESE) 05:08:11 435.910
HORYU 2 31 Jul 04:53:28 04:57:24 29° 94° (E) 05:01:22 437.375
O/OREOS (USA 219) 31 Jul 04:57:32 05:01:11 23° 320° (NW) 05:04:48 437.305
CUBESAT XI-V 31 Jul 04:59:42 05:02:27 16° 54° (NE) 05:05:19 437.345
RS-15 31 Jul 05:01:50 05:13:06 57° 23° (NNE) 05:24:56 29.354- 29.394
AO-7 31 Jul 05:02:08 05:09:53 41° 96° (E) 05:17:40 29.400- 29.500
Gurwin Techsat 1B 31 Jul 05:08:40 05:13:43 44° 296° (WNW) 05:18:44 435.225
GONETS M04 31 Jul 05:10:57 05:15:46 17° 71° (ENE) 05:20:59
BEESAT 3 31 Jul 05:11:15 05:13:59 17° 359° (N) 05:16:43 437.485
Cosmos 2504 31 Jul 05:17:06 05:24:03 45° 294° (WNW) 05:31:29 435.465 / 435.565
STARS 31 Jul 05:17:15 05:20:08 17° 272° (W) 05:22:55 437.465
CUSAT 1 31 Jul 05:19:20 05:21:58 42° 99° (E) 05:24:28 437.405
ITAMSAT 1 31 Jul 05:38:06 05:42:39 31° 300° (WNW) 05:47:07 435.822/435.867
AIST 2 31 Jul 05:53:33 05:56:39 19° 351° (N) 05:59:42 435.215
BEESAT 2 31 Jul 06:07:57 06:10:52 18° 10° (N) 06:13:47 435.950
MOZHAYETS 4 31 Jul 06:22:47 06:26:11 19° 272° (W) 06:29:29
HORYU 2 31 Jul 06:29:54 06:34:11 43° 294° (WNW) 06:38:28 437.375
DANDE 31 Jul 06:33:34 06:36:14 30° 289° (WNW) 06:38:39 436.750
CUBESAT XI-V 31 Jul 06:34:33 06:39:15 81° 74° (ENE) 06:43:57 437.345
PRISM 31 Jul 06:34:47 06:38:19 27° 62° (ENE) 06:41:53 437.425
STRAND 1 31 Jul 06:36:29 06:41:12 38° 63° (ENE) 06:45:58 437.568
JAS-2 31 Jul 06:38:02 06:44:59 38° 302° (WNW) 06:52:01 435.910
BEESAT 3 31 Jul 06:49:47 06:53:09 24° 22° (NNE) 06:56:31 437.485
Gurwin Techsat 1B 31 Jul 06:50:51 06:52:33 11° 316° (NW) 06:54:03 435.225
AO-7 31 Jul 06:54:57 07:03:12 64° 299° (WNW) 07:11:21 29.400- 29.500
CUTE-I 31 Jul 06:56:45 07:00:53 23° 89° (E) 07:05:07 437.470
GONETS M04 31 Jul 07:02:28 07:10:59 64° 94° (E) 07:19:35
RS-15 31 Jul 07:14:49 07:26:26 77° 232° (SW) 07:38:31 29.354- 29.394
Cosmos 2504 31 Jul 07:15:07 07:18:56 14° 323° (NW) 07:22:36 435.465 / 435.565
AIST 2 31 Jul 07:33:16 07:36:32 21° 15° (NNE) 07:39:48 435.215
M-CUBED/EXP-1 PRIME 31 Jul 07:35:02 07:36:39 12° 41° (NE) 07:38:27 437.505
Cosmos 2499 31 Jul 07:35:55 07:41:59 28° 80° (E) 07:48:36 435.465 / 435.565
Cubesat XI-IV 31 Jul 07:39:55 07:45:05 47° 99° (E) 07:50:14 437.490
BEESAT 2 31 Jul 07:46:04 07:49:56 37° 32° (NNE) 07:53:46 435.950
AUBIESAT-1 31 Jul 08:04:07 08:06:49 17° 46° (NE) 08:09:43 437.475
PRISM 31 Jul 08:09:35 08:13:36 43° 261° (W) 08:17:37 437.425
CUBESAT XI-V 31 Jul 08:14:17 08:17:21 17° 274° (W) 08:20:15 437.345
STRAND 1 31 Jul 08:15:32 08:20:25 41° 263° (W) 08:25:17 437.568
JAS-2 31 Jul 08:24:28 08:28:10 14° 325° (NW) 08:31:42 435.910
BEESAT 3 31 Jul 08:27:34 08:31:41 79° 44° (NE) 08:35:43 437.485
YUBILEINY 31 Jul 08:32:31 08:32:49 10° 20° (NNE) 08:33:25 435.215
CUTE-I 31 Jul 08:36:12 08:41:33 70° 290° (WNW) 08:46:50 437.470
CANX-2 31 Jul 08:41:13 08:41:31 10° 81° (E) 08:42:02 2200.000
AO-7 31 Jul 08:48:20 08:54:41 24° 323° (NW) 09:00:51 29.400- 29.500
BRITE-PL 31 Jul 08:59:56 09:03:58 39° 97° (E) 09:08:13 437.365/2234.400
GONETS M04 31 Jul 09:00:20 09:08:27 40° 298° (WNW) 09:16:31
M-CUBED/EXP-1 PRIME 31 Jul 09:06:24 09:10:27 50° 61° (ENE) 09:14:51 437.505
DOVE 4 31 Jul 09:09:56 09:13:27 22° 91° (E) 09:17:12 437.250
PCSat 31 Jul 09:10:24 09:12:35 13° 104° (ESE) 09:15:02 145.827
AIST 2 31 Jul 09:11:48 09:15:58 52° 38° (NE) 09:20:03 435.215
GOMX 1 31 Jul 09:16:03 09:20:07 36° 96° (E) 09:24:26 467.674
Cubesat XI-IV 31 Jul 09:20:15 09:25:07 36° 299° (WNW) 09:29:54 437.490
BEESAT 2 31 Jul 09:24:08 09:28:06 47° 234° (SW) 09:31:59 435.950
Cosmos 2499 31 Jul 09:26:47 09:34:20 79° 283° (WNW) 09:42:34 435.465 / 435.565
CINEMA 3 31 Jul 09:27:15 09:30:14 17° 87° (E) 09:33:25 145.822/145.860
RS-15 31 Jul 09:28:01 09:37:20 28° 256° (WSW) 09:46:32 29.354- 29.394
AUBIESAT-1 31 Jul 09:36:39 09:40:50 79° 66° (ENE) 09:45:22 437.475
HO-68 31 Jul 09:40:16 09:46:56 40° 95° (E) 09:53:39 435.675
UNISAT 6 31 Jul 09:44:10 09:47:28 21° 58° (ENE) 09:50:55 437.425
COMPASS 1 31 Jul 09:51:31 09:55:09 27° 93° (E) 09:58:49 437.405
UWE-3 31 Jul 09:52:28 09:54:11 12° 83° (E) 09:56:08 435.000/436.395/437.385
POLYITAN 1 31 Jul 09:53:00 09:54:39 12° 53° (NE) 09:56:26 437.675
SO-50 31 Jul 09:56:15 09:59:25 18° 114° (ESE) 10:02:47 436.795
O/OREOS (USA 219) 31 Jul 10:02:22 10:05:31 18° 35° (NE) 10:08:44 437.305
SEEDS 31 Jul 10:04:38 10:08:45 43° 98° (E) 10:12:50 437.485
CUBEBUG 2 31 Jul 10:04:46 10:08:01 19° 88° (E) 10:11:25 437.445
CUTE 1.7 + AOD 2 31 Jul 10:05:49 10:10:04 54° 100° (E) 10:14:18 437.475
BEESAT 3 31 Jul 10:06:18 10:09:09 18° 244° (WSW) 10:11:54 437.485
Oscar 11 31 Jul 10:06:52 10:09:48 18° 88° (E) 10:12:51 145.826/435.025
POPSAT HIP 1 31 Jul 10:09:26 10:11:57 16° 56° (NE) 10:14:35 437.405
CANX-2 31 Jul 10:14:01 10:18:22 70° 102° (ESE) 10:22:39 2200.000
QB50P2 31 Jul 10:16:24 10:19:17 19° 58° (ENE) 10:22:17 145.880/145.840
CUTE-I 31 Jul 10:17:29 10:20:49 17° 310° (NW) 10:24:01 437.470
BUGSAT 1 31 Jul 10:19:33 10:21:21 13° 54° (NE) 10:23:16 437.445
YUBILEINY 31 Jul 10:26:44 10:33:54 27° 52° (NE) 10:41:14 435.215
TIGRISAT 31 Jul 10:26:51 10:30:59 43° 67° (ENE) 10:35:16 435.000
DELFI C3 31 Jul 10:27:13 10:30:03 18° 89° (E) 10:32:58 145.870
ANTELSAT 31 Jul 10:28:08 10:32:20 46° 67° (ENE) 10:36:40 437.575/2403.000
AAUSAT CUBESAT 2 31 Jul 10:33:33 10:37:45 57° 101° (E) 10:41:54 437.432
BRITE-PL 31 Jul 10:38:44 10:42:29 30° 295° (WNW) 10:46:21 437.365/2234.400
AO-7 31 Jul 10:41:08 10:44:35 13° 350° (N) 10:47:56 29.400- 29.500
DUCHIFAT 1 31 Jul 10:41:18 10:44:48 27° 63° (ENE) 10:48:23 145.980
M-CUBED/EXP-1 PRIME 31 Jul 10:42:00 10:45:31 26° 263° (W) 10:49:14 437.505
QB50P1 31 Jul 10:43:41 10:47:19 29° 63° (ENE) 10:51:00 145.935-145.965
NANOSAT C BR1 31 Jul 10:45:18 10:48:56 30° 64° (ENE) 10:52:38 145.865
DOVE 4 31 Jul 10:47:09 10:51:33 57° 289° (WNW) 10:56:11 437.250
PCSat 31 Jul 10:49:44 10:55:04 62° 124° (SE) 11:00:28 145.827
AIST 2 31 Jul 10:50:37 10:54:23 31° 238° (WSW) 10:58:03 435.215
GOMX 1 31 Jul 10:54:19 10:58:18 34° 294° (WNW) 11:02:27 467.674
CINEMA 3 31 Jul 11:03:24 11:08:00 79° 286° (WNW) 11:12:46 145.822/145.860
GONETS M04 31 Jul 11:04:21 11:08:35 14° 328° (NNW) 11:12:31
ZACube-1 31 Jul 11:05:22 11:09:37 40° 97° (E) 11:13:57 437.345
Cosmos 2491 31 Jul 11:13:26 11:17:43 15° 69° (ENE) 11:22:26 435.465 / 435.565
AUBIESAT-1 31 Jul 11:13:30 11:16:13 16° 268° (W) 11:18:55 437.475
UNISAT 6 31 Jul 11:19:30 11:23:52 65° 258° (WSW) 11:28:21 437.425
Cosmos 2499 31 Jul 11:23:02 11:29:09 24° 311° (NW) 11:35:26 435.465 / 435.565
POLYITAN 1 31 Jul 11:25:39 11:29:50 69° 72° (ENE) 11:34:03 437.675
COMPASS 1 31 Jul 11:26:56 11:30:58 41° 293° (WNW) 11:34:56 437.405
UWE-3 31 Jul 11:26:59 11:31:33 76° 103° (ESE) 11:36:12 435.000/436.395/437.385
FUNcube-1 31 Jul 11:27:24 11:31:53 61° 101° (E) 11:36:25 145.935
HO-68 31 Jul 11:27:59 11:35:01 58° 297° (WNW) 11:42:00 435.675
